Regional Weather Roundup
Issued by NWS New Orleans/Baton Rouge, LA

Home | Current Version | Previous Version | Text Only | Print | Product List | Glossary On
Versions: 1 2 3 4 5 6 7 8 9 10 11 12 13 14 15 16 17 18 19 20 21 22 23 24 25 26 27
000
ASUS44 KLIX 260713
RWRLIX
NEW ORLEANS REGIONAL WEATHER ROUNDUP
NATIONAL WEATHER SERVICE NEW ORLEANS LA
200 AM CDT MON JUN 26 2017

NOTE: "FAIR" INDICATES FEW OR NO CLOUDS BELOW 12,000 FEET WITH NO
      SIGNIFICANT WEATHER AND/OR OBSTRUCTIONS TO VISIBILITY.
      SKY/WX - SKY CONDITION AND SIGNIFICANT WEATHER.
      TMP - AIR TEMPERATURE.     DP    - DEWPOINT TEMPERATURE.
      RH  - RELATIVE HUMIDITY.   PRES  - PRESSURE.
      HI  - HEAT INDEX.          WCI   - WIND CHILL INDEX.

*  THESE STATIONS ARE NOT NWS OR FAA STATIONS AND ARE NOT UNDER
   NWS QUALITY CONTROL.

LAZ038-040-048-061>063-065>067-069-260800-
SOUTHEAST LOUISIANA

CITY           SKY/WX    TMP DP  RH WIND       PRES   REMARKS
N.O. INTL ARPT MOCLDY    78  70  76 NE7       30.10F
N.O. LAKEFRONT CLEAR     79  71  76 E16       30.10F
N.O. DOWNTOWN*   N/A     78  68  71 VRB7        N/A
RESERVE*         N/A     76  70  82 N3        30.11S
SLIDELL        CLEAR     73  69  87 N7        30.10F
BATON ROUGE    CLEAR     71  66  84 NE6       30.11F
BOOTHVILLE     LGT RAIN  77  76  96 SE5       30.10F
BELLE CHASSE   LGT RAIN N/A N/A N/A NE6       30.09F
BOGALUSA*        N/A     70  65  83 CALM      30.14F
GALLIANO*      HAZE      77  72  84 N3        30.09S VSB 1/4
NEW ROADS*       N/A     71  66  85 E5        30.13S
GONZALES*        N/A     73  68  83 N3        30.10F
HAMMOND*       CLEAR     72  63  73 NE3       30.12F
HOUMA*         NOT AVBL
PORT FOURCHON* MOSUNNY  N/A N/A N/A CALM      30.08S

$$

MSZ070-080>082-260800-
SOUTHERN MISSISSIPPI

CITY           SKY/WX    TMP DP  RH WIND       PRES   REMARKS
MCCOMB         CLEAR     69  57  65 NE3       30.14F
GULFPORT       CLEAR     73  68  84 N5        30.11F
BILOXI         CLEAR     73  67  82 NE6       30.10F
PASCAGOULA     CLEAR     72  66  81 N5        30.11F

$$

COASTAL OBSERVATIONS
LAKE AND NEARSHORE STATIONS

STATION/POSITION TIME  TEMP    WIND        PRES    WAVE
                       AIR SEA DIR/SP/G            HT/PER
                 (UTC) (F)     (DEG/KT/KT) (MB)    (FT/S)
PASCAGOULA       0648           50/  6/  9 1019.1
WAVELAND YACHT   0648           50/  8/ 11 1019.6
GRAND ISLE       0648          190/  9/ 15 1018.8
SOUTHWEST PASS   0648           90/  7/  9   N/A
NEW CANAL        0648           70/ 17/ 19 1018.8
SHELL BEACH      0648           60/ 16/ 18 1019.1

OFFSHORE STATIONS

STATION/POSITION TIME  TEMP    WIND        PRES    WAVE
                       AIR SEA DIR/SP/G            HT/PER
                 (UTC) (F)     (DEG/KT/KT) (MB)    (FT/S)
64 S DAUPHIN ISL 0650   82 84   50/  6/  8 1018.5    2/ 6

$$





USA.gov is the U.S. government's official web portal to all federal, state and local government web resources and services.